^^
Your Local Weather - Clay, NY Station Historical Data
Daily Summary for March 1, 2017 Units:  English    Metric   Both
« Previous Day
Next Day »
Daily Weekly Monthly Yearly Custom
  High: Low: Average:
Temperature: 68.2 °F 45.7 °F 57.4 °F
Dew Point: 53.2 °F 33.0 °F 47.4 °F
Humidity: 88% 56% 70%
Wind Speed: 12.0mph 0.0mph 4.7mph
Wind Gust: 22.0mph - -
Wind- - SSW
Pressure: 29.78 in 29.22 in -
Precipitation: 0.07 in    
Historical Graphs
 
 
Tabular Data for March 1, 2017
Time Temperature Dew Point Pressure Wind Wind Speed Wind Gust Humidity Rainfall Rate (Hourly) solar
00:00 57.2 °F 42.1 °F 29.78 in South 4.0 mph 5.0 mph 57% 0.00 in 0 W/m2
00:06 57.1 °F 42.0 °F 29.77 in SW 5.0 mph 5.0 mph 57% 0.00 in 0 W/m2
00:12 57.1 °F 42.0 °F 29.77 in SW 4.0 mph 6.0 mph 57% 0.00 in 0 W/m2
00:18 57.0 °F 42.4 °F 29.76 in South 3.0 mph 6.0 mph 58% 0.00 in 0 W/m2
00:24 57.1 °F 42.0 °F 29.76 in SSW 4.0 mph 6.0 mph 57% 0.00 in 0 W/m2
00:30 57.1 °F 42.5 °F 29.76 in South 4.0 mph 6.0 mph 58% 0.00 in 0 W/m2
00:32 57.1 °F 42.5 °F 29.76 in SSW 4.0 mph 6.0 mph 58% 0.00 in 0 W/m2
00:38 57.1 °F 42.5 °F 29.76 in South 3.0 mph 6.0 mph 58% 0.00 in 0 W/m2
00:44 57.1 °F 42.5 °F 29.75 in SSW 3.0 mph 3.0 mph 58% 0.00 in 0 W/m2
00:50 57.1 °F 42.5 °F 29.75 in SW 4.0 mph 6.0 mph 58% 0.00 in 0 W/m2
00:56 57.1 °F 42.5 °F 29.74 in SSW 4.0 mph 6.0 mph 58% 0.00 in 0 W/m2
01:02 56.9 °F 42.7 °F 29.74 in SSW 3.0 mph 3.0 mph 59% 0.00 in 0 W/m2
01:08 56.8 °F 43.1 °F 29.73 in SSE 3.0 mph 4.0 mph 60% 0.00 in 0 W/m2
01:14 56.9 °F 43.2 °F 29.73 in SSW 4.0 mph 5.0 mph 60% 0.00 in 0 W/m2
01:20 57.0 °F 43.2 °F 29.73 in SSE 5.0 mph 7.0 mph 60% 0.00 in 0 W/m2
01:26 56.9 °F 43.6 °F 29.72 in SSW 5.0 mph 7.0 mph 61% 0.00 in 0 W/m2
01:32 56.8 °F 43.5 °F 29.72 in SW 4.0 mph 5.0 mph 61% 0.00 in 0 W/m2
01:38 56.7 °F 43.8 °F 29.71 in SSW 5.0 mph 9.0 mph 62% 0.00 in 0 W/m2
01:44 56.7 °F 43.8 °F 29.71 in SW 5.0 mph 8.0 mph 62% 0.00 in 0 W/m2
01:50 56.6 °F 43.7 °F 29.70 in South 5.0 mph 5.0 mph 62% 0.00 in 0 W/m2
01:56 56.4 °F 44.0 °F 29.70 in SSW 4.0 mph 7.0 mph 63% 0.00 in 0 W/m2
02:02 56.5 °F 44.0 °F 29.69 in SSE 5.0 mph 5.0 mph 63% 0.00 in 0 W/m2
02:08 56.4 °F 44.0 °F 29.69 in South 4.0 mph 7.0 mph 63% 0.00 in 0 W/m2
02:14 56.0 °F 44.0 °F 29.68 in South 3.0 mph 4.0 mph 64% 0.00 in 0 W/m2
02:20 55.8 °F 44.2 °F 29.68 in South 2.0 mph 2.0 mph 65% 0.00 in 0 W/m2
02:26 55.9 °F 44.7 °F 29.68 in SSE 3.0 mph 5.0 mph 66% 0.00 in 0 W/m2
02:32 56.1 °F 44.5 °F 29.68 in South 4.0 mph 4.0 mph 65% 0.00 in 0 W/m2
02:38 56.1 °F 44.5 °F 29.67 in SE 4.0 mph 4.0 mph 65% 0.00 in 0 W/m2
02:44 56.2 °F 45.0 °F 29.67 in South 4.0 mph 6.0 mph 66% 0.00 in 0 W/m2
02:50 56.3 °F 45.1 °F 29.67 in SSE 5.0 mph 5.0 mph 66% 0.00 in 0 W/m2
02:56 56.3 °F 45.1 °F 29.67 in SSE 5.0 mph 6.0 mph 66% 0.00 in 0 W/m2
03:02 56.3 °F 45.5 °F 29.66 in SE 4.0 mph 7.0 mph 67% 0.00 in 0 W/m2
03:08 56.2 °F 45.4 °F 29.65 in SSW 4.0 mph 7.0 mph 67% 0.00 in 0 W/m2
03:14 56.1 °F 45.7 °F 29.65 in South 3.0 mph 3.0 mph 68% 0.00 in 0 W/m2
03:20 55.9 °F 45.5 °F 29.64 in SSE 3.0 mph 3.0 mph 68% 0.00 in 0 W/m2
03:26 55.9 °F 45.5 °F 29.63 in SSE 2.0 mph 3.0 mph 68% 0.00 in 0 W/m2
03:32 56.0 °F 46.0 °F 29.63 in SSE 3.0 mph 3.0 mph 69% 0.00 in 0 W/m2
03:38 56.0 °F 46.0 °F 29.62 in SSW 4.0 mph 5.0 mph 69% 0.00 in 0 W/m2
03:44 56.2 °F 46.2 °F 29.62 in SSE 5.0 mph 6.0 mph 69% 0.00 in 0 W/m2
03:50 56.1 °F 46.1 °F 29.61 in SSE 4.0 mph 8.0 mph 69% 0.00 in 0 W/m2
03:56 56.3 °F 46.3 °F 29.60 in South 4.0 mph 8.0 mph 69% 0.00 in 0 W/m2
04:02 56.5 °F 46.4 °F 29.59 in South 3.0 mph 5.0 mph 69% 0.00 in 0 W/m2
04:08 56.4 °F 46.7 °F 29.59 in South 3.0 mph 5.0 mph 70% 0.00 in 0 W/m2
04:14 56.3 °F 47.0 °F 29.59 in South 4.0 mph 8.0 mph 71% 0.00 in 0 W/m2
04:20 56.4 °F 47.1 °F 29.59 in South 4.0 mph 7.0 mph 71% 0.00 in 0 W/m2
04:26 56.4 °F 47.1 °F 29.59 in SSW 3.0 mph 7.0 mph 71% 0.00 in 0 W/m2
04:32 56.6 °F 47.3 °F 29.59 in SSW 4.0 mph 4.0 mph 71% 0.00 in 0 W/m2
04:38 56.8 °F 47.5 °F 29.59 in South 5.0 mph 7.0 mph 71% 0.00 in 0 W/m2
04:50 56.8 °F 47.9 °F 29.57 in South 5.0 mph 5.0 mph 72% 0.00 in 0 W/m2
04:56 56.7 °F 47.8 °F 29.57 in SSE 4.0 mph 11.0 mph 72% 0.00 in 0 W/m2
05:02 56.6 °F 47.7 °F 29.56 in SSE 4.0 mph 7.0 mph 72% 0.00 in 0 W/m2
05:08 56.7 °F 47.8 °F 29.55 in SSE 5.0 mph 7.0 mph 72% 0.00 in 0 W/m2
05:14 56.9 °F 48.0 °F 29.57 in SE 6.0 mph 12.0 mph 72% 0.00 in 0 W/m2
05:20 57.0 °F 48.1 °F 29.57 in South 6.0 mph 6.0 mph 72% 0.00 in 0 W/m2
05:26 56.9 °F 48.0 °F 29.56 in South 6.0 mph 6.0 mph 72% 0.00 in 0 W/m2
05:32 56.3 °F 48.1 °F 29.54 in South 5.0 mph 6.0 mph 74% 0.00 in 0 W/m2
05:38 56.0 °F 48.5 °F 29.54 in SSE 4.0 mph 6.0 mph 76% 0.00 in 0 W/m2
05:44 55.9 °F 48.4 °F 29.52 in SE 4.0 mph 8.0 mph 76% 0.00 in 0 W/m2
05:50 56.0 °F 48.5 °F 29.53 in South 4.0 mph 4.0 mph 76% 0.00 in 0 W/m2
05:56 56.1 °F 48.6 °F 29.52 in SSE 3.0 mph 4.0 mph 76% 0.00 in 0 W/m2
06:02 56.2 °F 48.7 °F 29.52 in SSE 3.0 mph 4.0 mph 76% 0.00 in 0 W/m2
06:08 56.2 °F 48.7 °F 29.52 in SSE 3.0 mph 4.0 mph 76% 0.00 in 0 W/m2
06:14 56.3 °F 48.8 °F 29.51 in South 4.0 mph 4.0 mph 76% 0.00 in 0 W/m2
06:20 56.6 °F 48.8 °F 29.51 in SSE 5.0 mph 6.0 mph 75% 0.00 in 0 W/m2
06:26 56.8 °F 49.0 °F 29.50 in South 5.0 mph 6.0 mph 75% 0.00 in 0 W/m2
06:32 57.0 °F 48.8 °F 29.49 in SSE 5.0 mph 5.0 mph 74% 0.00 in 0 W/m2
06:38 56.9 °F 49.1 °F 29.47 in SE 5.0 mph 14.0 mph 75% 0.00 in 0 W/m2
06:44 57.2 °F 49.0 °F 29.46 in SSE 7.0 mph 8.0 mph 74% 0.00 in 0 W/m2
06:50 57.3 °F 49.1 °F 29.46 in SSE 7.0 mph 7.0 mph 74% 0.00 in 0 W/m2
06:56 57.4 °F 49.2 °F 29.46 in SE 6.0 mph 9.0 mph 74% 0.00 in 0 W/m2
07:03 57.6 °F 49.4 °F 29.46 in SSE 5.0 mph 8.0 mph 74% 0.00 in 0 W/m2
07:08 58.0 °F 49.8 °F 29.46 in SSE 6.0 mph 8.0 mph 74% 0.00 in 5 W/m2
07:14 58.2 °F 50.0 °F 29.47 in SSE 6.0 mph 6.0 mph 74% 0.00 in 7 W/m2
07:20 58.3 °F 49.7 °F 29.47 in South 5.0 mph 5.0 mph 73% 0.00 in 11 W/m2
07:26 58.1 °F 49.9 °F 29.46 in SSE 3.0 mph 5.0 mph 74% 0.00 in 12 W/m2
07:32 58.3 °F 50.0 °F 29.47 in South 3.0 mph 3.0 mph 74% 0.00 in 12 W/m2
07:38 58.5 °F 49.9 °F 29.47 in South 4.0 mph 4.0 mph 73% 0.00 in 7 W/m2
07:44 59.1 °F 50.5 °F 29.47 in South 5.0 mph 10.0 mph 73% 0.00 in 5 W/m2
07:50 59.7 °F 51.0 °F 29.46 in South 6.0 mph 6.0 mph 73% 0.00 in 7 W/m2
07:56 60.0 °F 50.9 °F 29.46 in South 6.0 mph 8.0 mph 72% 0.00 in 12 W/m2
08:02 60.1 °F 51.0 °F 29.46 in SW 5.0 mph 5.0 mph 72% 0.00 in 11 W/m2
08:08 60.0 °F 50.9 °F 29.46 in South 5.0 mph 7.0 mph 72% 0.00 in 11 W/m2
08:14 59.8 °F 50.8 °F 29.46 in SSE 4.0 mph 5.0 mph 72% 0.00 in 11 W/m2
08:20 59.7 °F 50.7 °F 29.46 in South 3.0 mph 8.0 mph 72% 0.00 in 11 W/m2
08:26 59.6 °F 50.9 °F 29.44 in South 3.0 mph 8.0 mph 73% 0.00 in 14 W/m2
08:32 59.7 °F 51.0 °F 29.44 in South 3.0 mph 5.0 mph 73% 0.00 in 14 W/m2
08:38 59.6 °F 50.9 °F 29.44 in SSW 3.0 mph 5.0 mph 73% 0.00 in 25 W/m2
08:44 59.5 °F 51.2 °F 29.44 in South 3.0 mph 4.0 mph 74% 0.00 in 21 W/m2
08:50 59.5 °F 51.2 °F 29.44 in SSE 4.0 mph 6.0 mph 74% 0.00 in 30 W/m2
08:56 59.6 °F 51.3 °F 29.44 in South 4.0 mph 6.0 mph 74% 0.00 in 30 W/m2
09:02 59.6 °F 51.7 °F 29.43 in SSE 4.0 mph 5.0 mph 75% 0.00 in 47 W/m2
09:08 59.7 °F 51.8 °F 29.43 in South 5.0 mph 12.0 mph 75% 0.00 in 28 W/m2
09:14 59.7 °F 51.8 °F 29.43 in SSE 6.0 mph 7.0 mph 75% 0.00 in 33 W/m2
09:20 59.6 °F 51.7 °F 29.42 in SSE 5.0 mph 5.0 mph 75% 0.00 in 19 W/m2
09:26 59.6 °F 52.0 °F 29.41 in SSE 4.0 mph 7.0 mph 76% 0.00 in 33 W/m2
09:32 59.7 °F 51.8 °F 29.40 in SSE 4.0 mph 6.0 mph 75% 0.00 in 49 W/m2
09:38 59.8 °F 51.9 °F 29.39 in SSE 5.0 mph 6.0 mph 75% 0.00 in 58 W/m2
09:44 60.0 °F 51.7 °F 29.39 in South 6.0 mph 9.0 mph 74% 0.00 in 69 W/m2
09:50 60.4 °F 51.3 °F 29.39 in South 7.0 mph 7.0 mph 72% 0.00 in 67 W/m2
09:56 60.5 °F 51.4 °F 29.39 in South 7.0 mph 8.0 mph 72% 0.00 in 81 W/m2
10:02 60.6 °F 51.1 °F 29.38 in SSE 6.0 mph 7.0 mph 71% 0.00 in 134 W/m2
10:08 60.8 °F 51.3 °F 29.38 in SSE 7.0 mph 9.0 mph 71% 0.00 in 97 W/m2
10:14 60.8 °F 51.3 °F 29.37 in SSE 7.0 mph 12.0 mph 71% 0.00 in 86 W/m2
10:20 61.9 °F 51.6 °F 29.36 in South 7.0 mph 7.0 mph 69% 0.00 in 564 W/m2
10:26 63.2 °F 52.1 °F 29.36 in SSE 6.0 mph 13.0 mph 67% 0.00 in 473 W/m2
10:32 63.1 °F 51.6 °F 29.35 in SSW 6.0 mph 6.0 mph 66% 0.00 in 216 W/m2
10:38 62.8 °F 51.7 °F 29.34 in SW 7.0 mph 10.0 mph 67% 0.00 in 264 W/m2
11:16 64.2 °F 51.8 °F 29.30 in South 9.0 mph 13.0 mph 64% 0.00 in 223 W/m2
11:22 64.4 °F 52.0 °F 29.30 in SSE 11.0 mph 16.0 mph 64% 0.00 in 332 W/m2
11:28 65.2 °F 52.3 °F 29.29 in South 10.0 mph 11.0 mph 63% 0.00 in 573 W/m2
11:34 65.3 °F 51.9 °F 29.29 in SW 11.0 mph 22.0 mph 62% 0.00 in 543 W/m2
11:39 65.8 °F 52.0 °F 29.30 in SW 12.0 mph 16.0 mph 61% 0.00 in 497 W/m2
11:45 66.4 °F 52.5 °F 29.30 in South 9.0 mph 9.0 mph 61% 0.00 in 568 W/m2
11:52 66.3 °F 52.0 °F 29.30 in South 8.0 mph 14.0 mph 60% 0.00 in 441 W/m2
11:58 66.1 °F 52.3 °F 29.30 in South 11.0 mph 11.0 mph 61% 0.00 in 571 W/m2
12:04 66.2 °F 52.3 °F 29.30 in SW 9.0 mph 11.0 mph 61% 0.00 in 255 W/m2
12:10 66.2 °F 51.9 °F 29.28 in SW 7.0 mph 7.0 mph 60% 0.00 in 287 W/m2
12:15 66.4 °F 52.5 °F 29.28 in South 7.0 mph 10.0 mph 61% 0.00 in 301 W/m2
12:22 66.5 °F 52.2 °F 29.28 in SSW 8.0 mph 8.0 mph 60% 0.00 in 315 W/m2
12:28 66.9 °F 52.6 °F 29.28 in SSW 7.0 mph 10.0 mph 60% 0.00 in 353 W/m2
12:33 67.2 °F 52.4 °F 29.28 in South 7.0 mph 15.0 mph 59% 0.00 in 327 W/m2
12:40 67.4 °F 52.1 °F 29.28 in SW 8.0 mph 8.0 mph 58% 0.00 in 265 W/m2
12:45 67.7 °F 51.9 °F 29.28 in SSW 7.0 mph 8.0 mph 57% 0.00 in 330 W/m2
12:52 68.0 °F 52.2 °F 29.27 in SSW 8.0 mph 16.0 mph 57% 0.00 in 345 W/m2
12:58 68.2 °F 51.9 °F 29.27 in SSW 8.0 mph 16.0 mph 56% 0.00 in 297 W/m2
13:04 68.2 °F 52.4 °F 29.27 in South 7.0 mph 8.0 mph 57% 0.00 in 281 W/m2
13:10 67.9 °F 51.6 °F 29.27 in SSE 7.0 mph 7.0 mph 56% 0.00 in 98 W/m2
13:15 67.4 °F 51.6 °F 29.27 in WSW 9.0 mph 14.0 mph 57% 0.00 in 100 W/m2
13:22 67.1 °F 51.8 °F 29.27 in SW 8.0 mph 14.0 mph 58% 0.00 in 111 W/m2
13:28 66.7 °F 51.9 °F 29.27 in South 9.0 mph 14.0 mph 59% 0.00 in 95 W/m2
13:34 66.3 °F 52.4 °F 29.27 in South 8.0 mph 9.0 mph 61% 0.00 in 86 W/m2
13:40 65.8 °F 52.4 °F 29.27 in WSW 7.0 mph 8.0 mph 62% 0.00 in 93 W/m2
13:45 65.5 °F 52.1 °F 29.27 in SW 7.0 mph 18.0 mph 62% 0.00 in 104 W/m2
13:52 65.0 °F 52.9 °F 29.27 in SW 7.0 mph 8.0 mph 65% 0.00 in 114 W/m2
13:58 64.6 °F 53.0 °F 29.26 in SSW 6.0 mph 8.0 mph 66% 0.00 in 127 W/m2
14:03 64.3 °F 53.1 °F 29.26 in SW 4.0 mph 7.0 mph 67% 0.00 in 132 W/m2
14:09 63.3 °F 53.0 °F 29.25 in North 4.0 mph 4.0 mph 69% 0.00 in 107 W/m2
14:16 61.4 °F 52.7 °F 29.25 in North 2.0 mph 4.0 mph 73% 0.00 in 111 W/m2
14:22 60.6 °F 52.6 °F 29.25 in North 1.0 mph 2.0 mph 75% 0.00 in 113 W/m2
14:28 60.2 °F 53.0 °F 29.25 in North 1.0 mph 2.0 mph 77% 0.00 in 77 W/m2
14:33 60.1 °F 53.2 °F 29.25 in North 1.0 mph 1.0 mph 78% 0.00 in 56 W/m2
14:39 60.0 °F 53.1 °F 29.25 in North 1.0 mph 1.0 mph 78% 0.00 in 39 W/m2
14:46 59.6 °F 52.7 °F 29.25 in North 1.0 mph 2.0 mph 78% 0.00 in 35 W/m2
14:52 59.3 °F 52.1 °F 29.25 in NW 2.0 mph 2.0 mph 77% 0.00 in 40 W/m2
14:58 59.4 °F 51.8 °F 29.25 in NW 1.0 mph 3.0 mph 76% 0.00 in 46 W/m2
15:03 59.5 °F 51.6 °F 29.26 in NW 1.0 mph 2.0 mph 75% 0.00 in 39 W/m2
15:10 59.6 °F 51.7 °F 29.26 in Calm     75% 0.00 in 77 W/m2
15:15 59.7 °F 51.4 °F 29.27 in West 1.0 mph 2.0 mph 74% 0.00 in 65 W/m2
15:22 61.2 °F 49.3 °F 29.26 in WSW 3.0 mph 4.0 mph 65% 0.00 in 74 W/m2
15:28 61.4 °F 51.1 °F 29.27 in NNW 3.0 mph 5.0 mph 69% 0.00 in 60 W/m2
15:34 60.9 °F 50.3 °F 29.26 in NNW 3.0 mph 7.0 mph 68% 0.00 in 58 W/m2
15:40 59.6 °F 50.9 °F 29.27 in North 5.0 mph 5.0 mph 73% 0.00 in 30 W/m2
15:45 57.8 °F 49.9 °F 29.26 in NNW 5.0 mph 8.0 mph 75% 0.00 in 28 W/m2
15:52 56.9 °F 50.1 °F 29.26 in North 6.0 mph 8.0 mph 78% 0.00 in 72 W/m2
15:58 56.6 °F 49.8 °F 29.27 in NNW 5.0 mph 8.0 mph 78% 0.00 in 70 W/m2
16:04 56.8 °F 50.4 °F 29.27 in NNW 4.0 mph 6.0 mph 79% 0.00 in 179 W/m2
16:09 56.9 °F 50.1 °F 29.27 in NNE 4.0 mph 4.0 mph 78% 0.00 in 105 W/m2
16:15 56.7 °F 49.9 °F 29.26 in NNE 4.0 mph 5.0 mph 78% 0.00 in 111 W/m2
16:22 57.4 °F 49.9 °F 29.25 in North 3.0 mph 4.0 mph 76% 0.00 in 227 W/m2
16:28 57.3 °F 49.8 °F 29.25 in NE 2.0 mph 4.0 mph 76% 0.00 in 90 W/m2
16:34 56.8 °F 49.7 °F 29.25 in NE 1.0 mph 2.0 mph 77% 0.00 in 63 W/m2
16:40 56.6 °F 49.5 °F 29.25 in NE 1.0 mph 3.0 mph 77% 0.00 in 47 W/m2
16:45 56.6 °F 49.8 °F 29.25 in Calm   3.0 mph 78% 0.00 in 39 W/m2
16:52 56.4 °F 49.6 °F 29.25 in NW 1.0 mph 1.0 mph 78% 0.00 in 32 W/m2
16:58 56.4 °F 49.6 °F 29.25 in NW 1.0 mph 2.0 mph 78% 0.00 in 26 W/m2
17:03 56.3 °F 49.5 °F 29.25 in Calm     78% 0.00 in 11 W/m2
17:09 56.2 °F 49.4 °F 29.26 in Calm     78% 0.00 in 7 W/m2
17:16 56.1 °F 49.3 °F 29.26 in Calm     78% 0.00 in 9 W/m2
17:22 55.8 °F 49.0 °F 29.26 in Calm     78% 0.00 in 16 W/m2
17:28 55.8 °F 49.0 °F 29.26 in Calm     78% 0.00 in 12 W/m2
17:33 55.6 °F 48.8 °F 29.26 in Calm     78% 0.00 in 11 W/m2
17:39 55.5 °F 49.1 °F 29.26 in Calm     79% 0.00 in 5 W/m2
17:46 55.1 °F 48.7 °F 29.26 in Calm   1.0 mph 79% 0.00 in 0 W/m2
17:52 54.8 °F 48.7 °F 29.26 in Calm   2.0 mph 80% 0.00 in 0 W/m2
17:58 54.5 °F 49.1 °F 29.25 in NW 1.0 mph 2.0 mph 82% 0.00 in 0 W/m2
18:04 54.2 °F 49.1 °F 29.25 in NW 1.0 mph 1.0 mph 83% 0.00 in 0 W/m2
18:10 53.7 °F 49.0 °F 29.25 in Calm   1.0 mph 84% 0.00 in 0 W/m2
18:15 53.5 °F 49.1 °F 29.25 in Calm   1.0 mph 85% 0.00 in 0 W/m2
18:22 53.5 °F 49.4 °F 29.25 in Calm     86% 0.00 in 0 W/m2
18:28 53.2 °F 49.1 °F 29.25 in Calm     86% 0.00 in 0 W/m2
18:33 53.0 °F 48.9 °F 29.24 in Calm     86% 0.00 in 0 W/m2
18:39 52.9 °F 48.8 °F 29.24 in Calm     86% 0.00 in 0 W/m2
18:46 52.6 °F 48.8 °F 29.24 in Calm   1.0 mph 87% 0.00 in 0 W/m2
18:52 52.3 °F 48.5 °F 29.24 in Calm     87% 0.00 in 0 W/m2
18:58 52.1 °F 48.3 °F 29.24 in Calm     87% 0.00 in 0 W/m2
19:04 52.0 °F 48.6 °F 29.23 in Calm   2.0 mph 88% 0.00 in 0 W/m2
19:10 52.0 °F 48.6 °F 29.23 in Calm     88% 0.00 in 0 W/m2
19:15 52.2 °F 48.8 °F 29.22 in Calm     88% 0.00 in 0 W/m2
19:22 52.5 °F 49.0 °F 29.22 in Calm     88% 0.00 in 0 W/m2
19:28 57.7 °F 46.8 °F 29.22 in South 3.0 mph 12.0 mph 67% 0.00 in 0 W/m2
19:33 60.3 °F 46.8 °F 29.22 in SW 6.0 mph 7.0 mph 61% 0.00 in 0 W/m2
19:40 61.0 °F 46.1 °F 29.22 in SSW 5.0 mph 5.0 mph 58% 0.00 in 0 W/m2
19:46 61.1 °F 46.7 °F 29.23 in WSW 6.0 mph 10.0 mph 59% 0.00 in 0 W/m2
19:52 56.7 °F 47.4 °F 29.25 in West 8.0 mph 9.0 mph 71% 0.25 in 0 W/m2
19:58 54.6 °F 47.2 °F 29.25 in West 7.0 mph 9.0 mph 76% 0.09 in 0 W/m2
20:03 53.9 °F 47.2 °F 29.25 in WSW 6.0 mph 7.0 mph 78% 0.09 in 0 W/m2
20:09 53.8 °F 47.4 °F 29.25 in SW 6.0 mph 6.0 mph 79% 0.05 in 0 W/m2
20:15 53.7 °F 47.3 °F 29.25 in SSW 7.0 mph 12.0 mph 79% 0.00 in 0 W/m2
20:22 53.6 °F 47.6 °F 29.25 in West 7.0 mph 10.0 mph 80% 0.13 in 0 W/m2
20:28 53.5 °F 47.5 °F 29.25 in SW 7.0 mph 13.0 mph 80% 0.07 in 0 W/m2
20:33 53.7 °F 47.3 °F 29.25 in West 7.0 mph 10.0 mph 79% 0.04 in 0 W/m2
20:39 53.7 °F 47.0 °F 29.25 in SSW 6.0 mph 9.0 mph 78% 0.00 in 0 W/m2
20:46 54.1 °F 46.3 °F 29.25 in West 7.0 mph 13.0 mph 75% 0.00 in 0 W/m2
20:52 54.2 °F 45.0 °F 29.25 in West 6.0 mph 7.0 mph 71% 0.00 in 0 W/m2
20:58 54.4 °F 43.7 °F 29.25 in SW 8.0 mph 11.0 mph 67% 0.00 in 0 W/m2
21:04 54.4 °F 43.3 °F 29.26 in WSW 9.0 mph 9.0 mph 66% 0.00 in 0 W/m2
21:10 54.4 °F 42.9 °F 29.26 in West 7.0 mph 10.0 mph 65% 0.00 in 0 W/m2
21:15 54.6 °F 42.3 °F 29.27 in SW 8.0 mph 12.0 mph 63% 0.00 in 0 W/m2
21:22 54.5 °F 42.2 °F 29.26 in West 9.0 mph 9.0 mph 63% 0.00 in 0 W/m2
21:28 54.3 °F 41.6 °F 29.27 in West 9.0 mph 11.0 mph 62% 0.00 in 0 W/m2
21:34 54.1 °F 41.8 °F 29.27 in West 8.0 mph 9.0 mph 63% 0.00 in 0 W/m2
21:40 53.8 °F 41.1 °F 29.28 in WSW 7.0 mph 7.0 mph 62% 0.00 in 0 W/m2
21:45 53.2 °F 40.1 °F 29.28 in WNW 8.0 mph 8.0 mph 61% 0.00 in 0 W/m2
21:52 52.5 °F 39.8 °F 29.28 in NW 7.0 mph 15.0 mph 62% 0.00 in 0 W/m2
21:58 52.0 °F 39.4 °F 29.28 in WNW 8.0 mph 15.0 mph 62% 0.00 in 0 W/m2
22:03 51.7 °F 39.1 °F 29.28 in West 8.0 mph 8.0 mph 62% 0.00 in 0 W/m2
22:10 51.2 °F 38.6 °F 29.29 in WNW 9.0 mph 10.0 mph 62% 0.00 in 0 W/m2
22:15 50.5 °F 37.5 °F 29.29 in WSW 8.0 mph 15.0 mph 61% 0.00 in 0 W/m2
22:22 50.0 °F 37.5 °F 29.30 in West 8.0 mph 8.0 mph 62% 0.00 in 0 W/m2
22:28 49.6 °F 37.1 °F 29.31 in WSW 8.0 mph 9.0 mph 62% 0.00 in 0 W/m2
22:33 49.3 °F 36.8 °F 29.31 in WNW 8.0 mph 10.0 mph 62% 0.00 in 0 W/m2
22:39 48.9 °F 36.4 °F 29.32 in West 7.0 mph 9.0 mph 62% 0.00 in 0 W/m2
22:46 48.7 °F 36.3 °F 29.32 in WNW 9.0 mph 21.0 mph 62% 0.00 in 0 W/m2
22:52 48.2 °F 36.2 °F 29.32 in WSW 8.0 mph 9.0 mph 63% 0.00 in 0 W/m2
22:58 47.9 °F 36.3 °F 29.32 in NW 6.0 mph 9.0 mph 64% 0.00 in 0 W/m2
23:03 47.4 °F 35.8 °F 29.32 in West 7.0 mph 15.0 mph 64% 0.00 in 0 W/m2
23:09 47.1 °F 35.5 °F 29.33 in West 8.0 mph 10.0 mph 64% 0.00 in 0 W/m2
23:16 46.7 °F 35.2 °F 29.33 in NW 7.0 mph 10.0 mph 64% 0.00 in 0 W/m2
23:22 46.5 °F 34.6 °F 29.34 in West 7.0 mph 7.0 mph 63% 0.00 in 0 W/m2
23:28 46.5 °F 34.6 °F 29.34 in WNW 7.0 mph 9.0 mph 63% 0.00 in 0 W/m2
23:34 46.3 °F 34.4 °F 29.35 in West 7.0 mph 7.0 mph 63% 0.00 in 0 W/m2
23:39 46.2 °F 34.3 °F 29.35 in NNW 6.0 mph 12.0 mph 63% 0.00 in 0 W/m2
23:46 46.0 °F 33.7 °F 29.35 in West 6.0 mph 12.0 mph 62% 0.00 in 0 W/m2
23:52 45.8 °F 33.1 °F 29.35 in NW 6.0 mph 7.0 mph 61% 0.00 in 0 W/m2
23:58 45.7 °F 33.0 °F 29.36 in SW 5.0 mph 10.0 mph 61% 0.00 in 0 W/m2
Country Meadow, Clay, NY, USA
Compliments of Weather Underground - 2 mb